Regional Weather Roundup
Issued by NWS

Home | Current Version | Previous Version | Graphics & Text | Print | Product List | Glossary On
Versions: 1 2 3 4 5 6 7 8 9 10 11 12 13 14 15 16 17 18 19 20 21 22 23 24 25 26 27 28 29 30 31 32 33 34 35 36 37 38 39 40 41 42 43 44 45 46 47 48 49 50
000
ASUS43 KOAX 262110
RWRNE

WEATHER ROUNDUP FOR NEBRASKA
NATIONAL WEATHER SERVICE OMAHA NE
400 PM CDT TUE MAY 26 2015

NOTES: SATELLITE DATA IS BEING USED TO AUGMENT CLOUD COVER ABOVE
       12000 FEET.
       "FAIR" INDICATES FEW OR NO CLOUDS BELOW 12,000 FEET WITH NO
       SIGNIFICANT WEATHER AND/OR OBSTRUCTIONS TO VISIBILITY.

  * THESE STATIONS DO NOT REPORT WEATHER SUCH AS RAIN...SNOW OR FOG.

NEZ001>004-019>022-054>056-262200-
NEBRASKA PANHANDLE

CITY           SKY/WX    TMP DP  RH WIND       PRES   REMARKS
SCOTTSBLUFF    MOSUNNY   69  52  54 SE13G21   29.98F
ALLIANCE       MOSUNNY   67  48  50 VRB6      29.99F
CHADRON        MOSUNNY   70  50  49 MISG      29.97F
KIMBALL          N/A    N/A N/A N/A MISG        N/A
SIDNEY         MOSUNNY   65  50  58 VRB7      30.02F
$$

NEZ057>060-069>072-079>082-262200-
SOUTHWEST NEBRASKA

CITY           SKY/WX    TMP DP  RH WIND       PRES   REMARKS
NORTH PLATTE   MOSUNNY   67  47  48 NW9       29.98F
IMPERIAL       MOSUNNY   69  51  52 NW5       29.99F
LEXINGTON      MOSUNNY   69  52  54 N14       29.97S
MCCOOK         MOSUNNY   73  49  42 NW10G23   29.97S
OGALLALA       SUNNY     68  48  48 CALM      30.00S
$$

NEZ005>010-023>029-035>040-094-262200-
NORTH CENTRAL NEBRASKA

CITY           SKY/WX    TMP DP  RH WIND       PRES   REMARKS
VALENTINE      PTSUNNY   72  46  39 N6        29.96S
AINSWORTH      PTSUNNY   70  49  46 NW10      29.96S
BROKEN BOW     PTSUNNY   69  49  48 N8        29.96S
O`NEILL        CLOUDY    67  54  62 NW13G20   29.93S
ORD            PTSUNNY   68  48  48 N13       29.92S
THEDFORD       MOSUNNY   69  47  44 NW3       29.99S
$$

NEZ041-046>049-061>064-073>077-083>087-262200-
SOUTH CENTRAL NEBRASKA

CITY           SKY/WX    TMP DP  RH WIND       PRES   REMARKS
GRAND ISLAND   MOSUNNY   70  52  52 NW15G24   29.92S
AURORA         PTSUNNY   67  53  59 NW12      29.91S
HASTINGS       PTSUNNY   69  52  54 NW15      29.92F
HEBRON         MOSUNNY   71  51  48 NW14G21   29.91R
HOLDREGE       MOSUNNY   69  47  44 NW12G18   29.95F
KEARNEY *      CLOUDY    70  48  46 NW18G25   29.94S
YORK           CLOUDY    68  55  64 NW12      29.90S
$$

NEZ011>018-030>034-042>045-262200-
NORTHEAST NEBRASKA

CITY           SKY/WX    TMP DP  RH WIND       PRES   REMARKS
NORFOLK        CLOUDY    69  53  56 N17       29.87S
ALBION         PTSUNNY   66  52  59 N9G17     29.90S
BLAIR          CLOUDY    63  56  80 NW13      29.86R
COLUMBUS *       N/A    N/A N/A N/A MISG        N/A
FREMONT        CLOUDY    66  57  72 NW12      29.87R
TEKAMAH        LGT RAIN  63  58  83 NW16      29.85R
WAYNE          CLOUDY    69  55  61 N13G21    29.85F
$$

NEZ050>053-065>068-078-088>093-262200-
SOUTHEAST NEBRASKA

CITY           SKY/WX    TMP DP  RH WIND       PRES   REMARKS
LINCOLN        CLOUDY    69  56  62 NW17      29.88R
OMAHA EPPLEY   CLOUDY    66  60  81 NW14      29.84R
BEATRICE       PTSUNNY   72  58  60 W15G25    29.88R
FALLS CITY     MOSUNNY   75  61  61 W18G30    29.85R
NEBRASKA CITY  PTSUNNY   69  61  73 NW13      29.86R
PLATTSMOUTH    PTSUNNY   69  58  67 W18G24    29.85R
$$

NEZ044-045-051>053-067-262200-
OMAHA AREA

CITY           SKY/WX    TMP DP  RH WIND       PRES   REMARKS
OMAHA EPPLEY   CLOUDY    66  60  81 NW14      29.84R
BLAIR          CLOUDY    63  56  80 NW13      29.86R
FREMONT        CLOUDY    66  57  72 NW12      29.87R
MILLARD        CLOUDY    67  59  76 NW10G22   29.86R
OFFUTT AFB     PTSUNNY   68  60  74 NW14G22   29.84R
PLATTSMOUTH    PTSUNNY   69  58  67 W18G24    29.85R
WAHOO          CLOUDY    67  58  75 NW10      29.87R
$$



USA.gov is the U.S. government's official web portal to all federal, state and local government web resources and services.